EW6754 Weather Reports


Display with metric or nautical units.
time (UTC)temp
F
wind
direction
speed
MPH
gust
MPH
rain 1hr
in
rain 24hr
in
rain mn
in
humidity
%
barometer
mb
20260508090036 72 150 0.0 0.0 0.00 0.00 0.00 70 1014.1
20260508084534 72 150 0.0 0.0 0.00 0.00 0.00 71 1013.9
20260508083039 72 150 0.0 0.0 0.00 0.00 0.00 72 1013.8
20260508081535 72 174 0.0 0.0 0.00 0.00 0.00 74 1013.7
20260508080030 73 174 0.0 0.0 0.00 0.00 0.00 73 1013.8
20260508074532 73 162 0.0 0.0 0.00 0.00 0.00 74 1013.8
20260508073029 73 231 0.0 0.0 0.00 0.00 0.00 74 1013.9
20260508071528 73 230 0.0 0.0 0.00 0.00 0.00 73 1013.7
20260508070034 73 160 0.0 0.0 0.00 0.00 0.00 75 1013.8
20260508064529 74 136 0.0 0.0 0.00 0.00 0.00 76 1014.1
20260508063025 74 191 0.0 0.0 0.00 0.00 0.00 75 1014.1
20260508061520 74 191 0.0 0.0 0.00 0.00 0.00 76 1014.1
20260508060018 74 191 0.0 0.0 0.00 0.00 0.00 76 1014.3
20260508054515 74 239 0.0 0.0 0.00 0.00 0.00 76 1014.3
20260508053015 74 216 0.0 0.0 0.00 0.00 0.00 77 1014.5
20260508051510 75 197 0.0 0.0 0.00 0.00 0.00 77 1014.6
20260508050008 75 219 0.0 0.0 0.00 0.01 0.00 77 1014.6
20260508044507 76 188 0.0 0.0 0.00 0.01 0.00 79 1014.7
20260508043004 76 234 0.0 0.0 0.00 0.01 0.00 79 1014.9
20260508041600 77 234 0.0 0.0 0.00 0.01 0.00 80 1015.0
20260508040058 77 156 0.0 0.0 0.00 0.02 0.01 81 1015.2
20260508034557 78 108 0.0 0.0 0.00 0.02 0.01 81 1015.4
20260508033056 78 101 0.0 0.0 0.00 0.02 0.01 81 1015.5
20260508031558 78 105 0.0 0.0 0.00 0.02 0.01 81 1015.6
20260508024600 78 92 0.0 0.0 0.00 0.02 0.01 82 1015.6
20260508023055 78 93 0.0 0.0 0.00 0.02 0.01 82 1015.5
20260508021554 79 85 0.0 0.0 0.00 0.02 0.01 81 1015.5
20260508020055 79 117 0.0 0.0 0.00 0.02 0.01 81 1015.5
20260508014553 79 73 0.0 0.0 0.00 0.02 0.01 81 1015.4
20260508013100 79 63 0.0 0.0 0.00 0.02 0.01 81 1015.3
20260508011552 80 66 0.0 0.0 0.00 0.02 0.01 81 1015.1
20260508010052 80 66 0.0 0.0 0.00 0.02 0.01 81 1015.1
20260508004554 80 139 0.0 0.0 0.00 0.02 0.01 80 1015.1
20260508003050 80 115 0.0 0.0 0.00 0.02 0.01 80 1014.9
20260508001549 81 84 0.0 0.0 0.00 0.02 0.01 80 1014.7
20260508000049 81 164 0.0 0.0 0.00 0.02 0.01 80 1014.7
20260507234551 81 134 0.0 0.0 0.00 0.02 0.01 80 1014.5
20260507233048 81 121 0.0 0.0 0.00 0.02 0.01 80 1014.4
20260507231547 81 139 0.0 0.0 0.00 0.02 0.01 79 1014.1
20260507230145 82 120 0.0 0.0 0.00 0.02 0.01 78 1013.6
20260507224544 82 81 0.0 0.0 0.00 0.02 0.01 77 1013.4
20260507223040 82 91 0.0 0.0 0.00 0.02 0.01 75 1013.4
20260507221536 83 118 0.0 0.0 0.00 0.02 0.01 75 1013.4
20260507220033 84 98 0.0 6.0 0.00 0.02 0.01 72 1013.3
20260507214528 84 135 0.0 8.0 0.00 0.02 0.01 71 1013.1
20260507213023 84 173 0.0 0.0 0.00 0.02 0.01 71 1012.9
20260507211522 84 185 0.0 2.0 0.00 0.02 0.01 71 1012.9
20260507210020 85 121 0.0 0.0 0.00 0.02 0.01 70 1013.0
20260507204620 85 146 0.0 4.0 0.00 0.02 0.01 68 1012.8
20260507203020 87 54 1.0 10.0 0.00 0.02 0.01 66 1012.8
20260507201518 87 113 0.0 14.0 0.00 0.02 0.01 65 1012.9
20260507200018 89 129 0.0 10.0 0.00 0.02 0.01 64 1012.9
20260507194522 88 109 0.0 7.0 0.00 0.02 0.01 63 1012.8
20260507193024 88 70 0.0 10.0 0.00 0.02 0.01 64 1013.1
20260507191514 89 91 0.0 11.0 0.00 0.02 0.01 63 1013.2
20260507190013 89 157 0.0 11.0 0.00 0.02 0.01 63 1013.4
20260507184512 89 92 1.0 10.0 0.00 0.02 0.01 63 1013.4
20260507183016 90 116 0.0 4.0 0.00 0.02 0.01 62 1013.5
20260507181509 90 110 0.0 8.0 0.00 0.02 0.01 62 1013.5
20260507180013 89 107 0.0 7.0 0.00 0.02 0.01 62 1013.8
20260507174505 90 94 0.0 0.0 0.00 0.02 0.01 63 1014.0
20260507173006 88 87 1.0 11.0 0.00 0.02 0.01 64 1014.3
20260507171604 89 90 0.0 6.0 0.00 0.02 0.01 64 1014.6
20260507164631 88 103 0.0 12.0 0.00 0.02 0.01 65 1015.0
20260507163100 88 110 0.0 11.0 0.00 0.02 0.01 67 1015.3
20260507161601 86 115 0.0 7.0 0.00 0.02 0.01 69 1015.4
20260507160057 87 199 0.0 0.0 0.00 0.02 0.01 68 1015.6
20260507154556 89 126 0.0 2.0 0.00 0.02 0.01 64 1015.7
20260507153055 89 122 0.0 0.0 0.00 0.02 0.01 65 1015.7
20260507151552 88 146 0.0 5.0 0.00 0.02 0.01 64 1015.8
20260507150051 88 98 0.0 9.0 0.00 0.02 0.01 66 1016.0
20260507144549 87 92 0.0 0.0 0.00 0.02 0.01 67 1016.0
20260507143104 85 102 0.0 8.0 0.00 0.02 0.01 71 1016.2
20260507141603 85 129 0.0 4.0 0.00 0.02 0.01 73 1016.3
20260507140043 85 105 0.0 0.0 0.00 0.02 0.01 74 1016.3
20260507134541 83 151 0.0 0.0 0.00 0.02 0.01 77 1016.4
20260507133042 83 141 0.0 0.0 0.00 0.02 0.01 77 1016.1
20260507131549 83 127 0.0 0.0 0.00 0.02 0.01 78 1016.1
20260507130042 83 123 0.0 0.0 0.00 0.02 0.01 79 1016.1
20260507124538 81 158 0.0 6.0 0.00 0.02 0.01 81 1016.1
20260507123042 82 226 0.0 0.0 0.00 0.02 0.01 81 1016.0
20260507121540 82 125 0.0 0.0 0.00 0.02 0.01 80 1015.7
20260507120034 82 106 0.0 4.0 0.00 0.02 0.01 81 1015.5
20260507114532 81 88 0.0 0.0 0.00 0.02 0.01 81 1015.5
20260507113031 82 70 0.0 0.0 0.00 0.02 0.01 81 1015.3
20260507111526 80 37 0.0 0.0 0.00 0.02 0.01 80 1015.3
20260507110026 78 94 0.0 0.0 0.00 0.02 0.01 77 1015.2
20260507104524 77 212 0.0 0.0 0.00 0.02 0.01 76 1015.2
20260507103020 77 207 0.0 0.0 0.00 0.02 0.01 72 1015.1
20260507101519 76 207 0.0 0.0 0.00 0.02 0.01 70 1015.0
20260507100018 76 207 0.0 0.0 0.00 0.02 0.01 69 1014.8
20260507094517 76 150 0.0 0.0 0.00 0.02 0.01 68 1014.9
20260507093017 76 162 0.0 0.0 0.00 0.02 0.01 69 1014.8
20260507091519 76 207 0.0 0.0 0.00 0.02 0.01 68 1014.8